SCP
0 0 0 0 0 0 0 0 0 0 0 0 0 0 0 0 0 0 1 1 1 1 0 0 1 1 1 1 1 1 2 2 2 2 2 2 2 1 1 1 1 1 1
0 0 0 0 0 0 0 0 0 0 0 0 0 0 0 0 0 0 1 1 1 1 1 1 1 1 1 1 1 1 1 2 2 2 2 2 2 1 1 1 1 1 1
0 0 0 0 0 0 0 0 0 0 0 0 0 0 0 0 0 0 1 1 1 1 1 1 1 1 1 1 1 1 1 1 2 2 2 2 1 1 1 1 2 2 2
0 0 0 0 0 0 0 0 0 0 0 0 0 0 0 0 0 0 0 1 1 0 0 1 1 1 1 1 1 1 1 1 1 1 1 1 1 1 1 1 2 2 2
0 0 0 0 0 0 0 0 0 0 0 0 0 0 0 0 0 0 0 0 0 0 0 0 0 1 1 1 1 1 1 1 1 1 1 1 1 1 1 1 2 2 2
0 0 0 0 0 0 0 0 0 0 0 0 0 0 0 0 0 0 0 0 0 0 0 0 0 0 0 1 1 1 1 1 1 1 1 1 1 1 1 1 1 1 1
0 0 0 0 0 0 0 0 0 0 0 0 0 0 0 0 0 0 0 0 0 0 0 0 0 0 0 0 0 1 1 1 1 1 2 2 2 1 1 1 1 1 1
0 0 0 0 0 0 0 0 0 0 0 0 0 0 0 0 0 0 0 0 0 0 0 0 0 0 0 0 0 0 0 1 2 3 3 3 2 1 1 1 1 1 1
0 0 0 0 0 0 0 0 0 0 0 0 0 0 0 0 0 0 0 0 0 0 0 0 0 0 0 0 0 0 0 1 3 4 4 3 2 2 1 1 1 2 2
0 0 0 0 0 0 0 0 0 0 0 0 0 0 0 0 0 0 0 0 0 0 0 0 0 0 0 0 0 0 1 1 3 3 3 2 2 2 2 2 2 2 2
0 0 0 0 0 0 0 0 0 0 0 0 0 0 0 0 0 0 0 0 0 0 0 0 0 0 0 0 0 0 0 1 2 2 2 2 2 1 1 2 2 2 2
0 0 0 0 0 0 0 0 0 0 0 0 0 0 0 0 0 0 0 0 0 0 0 0 0 0 0 0 0 0 0 0 1 1 2 2 1 1 1 2 2 2 2
0 0 0 0 0 0 0 0 0 0 0 0 0 0 0 0 0 0 0 0 0 0 0 0 0 0 0 0 0 0 0 0 0 1 1 1 1 1 1 1 2 2 2
0 0 0 0 0 0 0 0 0 0 0 0 0 0 0 0 0 0 0 0 0 0 0 0 0 0 0 0 0 0 0 0 0 0 0 0 1 1 1 1 1 2 2
0 0 0 0 0 0 0 0 0 0 0 0 0 0 0 0 0 0 0 0 0 0 0 0 0 0 0 0 0 0 0 0 0 0 0 0 0 1 1 1 1 1 1
0 0 0 0 0 0 0 0 0 0 0 0 0 0 0 0 0 0 0 0 0 0 0 0 0 0 0 0 0 0 0 0 0 0 0 0 0 0 0 1 1 1 1
0 0 0 0 0 0 0 0 0 0 0 0 0 0 0 0 0 0 0 0 0 0 0 0 0 0 0 0 0 0 0 0 0 0 0 0 0 0 0 1 1 0 0
0 0 0 0 0 0 0 0 0 0 0 0 0 0 0 0 0 0 0 0 0 0 0 0 0 0 0 0 0 0 0 0 0 0 0 0 0 0 0 0 1 0 0
0 0 0 0 0 0 0 0 0 0 0 0 0 0 0 0 0 0 0 0 0 0 0 0 0 0 0 0 0 0 0 0 0 0 0 0 0 0 0 0 0 0 0
0 0 0 0 0 0 0 0 0 0 0 0 0 0 0 0 0 0 0 0 0 0 0 0 0 0 0 0 0 0 0 0 0 0 0 0 0 0 0 0 0 0 0
0 0 0 0 0 0 0 0 0 0 0 0 0 0 0 0 0 0 0 0 0 0 0 0 0 0 0 0 0 0 0 0 0 0 0 0 0 0 0 0 0 0 0
0 0 0 0 0 0 0 0 0 0 0 0 0 0 0 0 0 0 0 0 0 0 0 0 0 0 0 0 0 0 0 0 0 0 0 0 0 0 0 0 0 0 0
0 0 0 0 0 0 0 0 0 0 0 0 0 0 0 0 0 0 0 0 0 0 0 0 0 0 0 0 0 0 0 0 0 0 0 0 0 0 1 1 0 0 0
0 0 0 0 0 0 0 0 0 0 0 0 0 0 0 0 0 0 0 0 0 0 0 0 0 0 0 0 0 0 0 0 0 0 0 0 0 0 0 1 0 0 0
0 0 0 0 0 0 0 0 0 0 0 0 0 0 0 0 0 0 0 0 0 0 0 0 0 0 0 0 0 0 0 0 0 0 0 0 0 0 0 0 0 0 0
0 0 0 0 0 0 0 0 0 0 0 0 0 0 0 0 0 0 0 0 0 0 0 0 0 0 0 0 0 0 0 0 0 0 0 0 0 0 0 0 0 0 0
Wind_Speed
3 3 3 3 3 3 3 3 3 4 4 4 4 4 4 4 3 3 3 8 8 7 7 6 6 7 7 7 8 8 6 3 1 1 1 2 2 2 2 2 3 4 5
3 3 3 3 3 3 3 3 3 3 3 3 4 5 4 4 3 4 3 5 8 8 8 8 7 7 7 8 8 8 7 5 4 3 2 2 2 2 2 2 3 4 5
3 3 3 3 3 3 3 3 4 3 4 4 5 5 4 4 4 4 4 3 4 7 9 9 9 8 8 8 8 8 7 5 4 3 3 3 3 2 2 2 4 4 5
4 3 3 3 3 3 3 3 3 4 4 4 4 4 4 4 5 5 4 5 4 4 7 10 10 10 9 9 9 8 7 5 3 3 3 3 3 3 3 4 4 4 4
4 4 3 3 3 3 4 3 4 3 3 3 3 4 4 4 5 5 6 6 5 5 4 7 11 11 10 10 9 8 7 6 4 3 3 3 3 3 3 3 3 2 3
4 4 3 4 4 4 4 3 4 4 3 2 3 4 4 4 4 5 5 5 5 6 6 6 5 7 11 11 11 9 7 6 5 5 4 3 2 2 2 2 2 2 3
4 4 3 4 4 4 3 3 2 4 4 3 3 3 4 4 5 5 4 5 6 6 6 6 5 4 5 10 11 11 9 7 6 6 5 4 3 2 2 1 2 2 2
4 3 4 3 3 3 5 5 3 2 3 4 2 2 3 5 4 5 4 5 6 5 6 8 7 6 5 4 8 12 11 9 7 6 6 5 4 2 2 1 1 2 1
4 4 4 3 4 3 3 4 3 3 2 3 3 3 2 0 3 4 4 5 6 5 5 5 7 7 7 6 6 9 12 11 9 8 7 6 5 4 3 2 1 1 1
4 3 3 3 3 3 3 3 3 2 3 2 2 3 2 2 1 2 4 4 5 5 6 6 6 6 7 6 8 11 12 11 10 10 9 7 6 6 4 3 2 1 1
3 3 3 3 3 3 3 4 4 4 2 2 1 1 2 2 2 2 2 4 4 3 4 5 4 5 6 6 5 9 12 11 11 11 10 10 8 7 5 3 3 2 2
2 3 3 3 3 3 3 3 3 4 3 3 2 2 1 1 1 1 0 2 3 3 4 4 4 5 5 5 8 12 12 11 11 11 11 11 10 9 8 5 4 3 2
1 2 2 2 2 2 2 3 3 3 3 3 2 2 1 1 1 1 1 0 2 3 3 3 3 4 5 5 6 11 11 11 11 11 11 10 10 10 10 8 6 5 4
1 0 1 2 2 2 3 3 3 2 3 3 3 2 1 1 1 1 1 1 1 3 3 4 3 4 4 4 6 8 7 11 10 10 10 10 10 10 10 10 8 7 6
1 1 1 2 2 2 2 3 2 2 2 2 2 2 2 1 1 1 0 1 2 0 2 3 3 4 4 3 6 5 4 9 10 10 10 9 9 9 9 9 8 7 7
1 2 2 2 2 2 2 3 2 2 3 2 1 2 2 1 1 1 1 0 1 2 1 2 3 3 5 5 7 5 5 10 10 9 9 9 9 8 8 8 9 8 8
2 2 2 2 2 2 2 2 2 2 2 2 2 2 2 2 1 1 1 1 1 1 1 2 2 3 4 4 6 5 4 4 4 8 8 8 8 8 8 8 8 8 8
2 2 2 2 2 2 1 2 1 1 1 1 1 2 2 2 2 1 1 1 1 0 1 2 3 3 3 4 4 4 4 4 3 7 8 8 8 8 7 7 8 8 8
3 2 2 2 2 2 1 1 1 1 0 0 0 0 1 1 1 1 1 1 1 1 0 1 2 2 2 3 3 4 4 3 4 6 7 8 8 8 8 7 7 7 7
3 3 2 2 2 2 2 1 1 1 0 0 0 0 1 1 1 1 1 1 0 1 1 1 2 2 2 3 2 3 4 3 4 5 5 6 7 8 8 7 7 7 7
4 3 3 2 1 2 2 2 2 2 1 0 1 1 1 1 1 1 0 1 0 0 1 1 2 2 2 2 2 2 3 4 3 3 3 3 4 4 4 6 6 7 7
3 3 3 3 2 2 3 4 3 2 1 1 1 2 2 2 2 3 2 1 1 1 1 1 1 2 3 3 2 2 2 3 3 2 2 4 3 3 4 3 6 7 7
3 3 3 3 3 3 5 4 4 2 2 2 2 2 2 2 2 1 3 3 3 4 3 2 2 3 3 3 2 3 2 2 4 3 2 4 3 4 4 4 8 8 7
4 4 4 4 3 4 6 5 4 2 2 2 3 3 3 3 3 2 1 2 3 3 4 2 3 4 5 4 4 3 3 3 4 3 2 3 3 3 4 4 7 8 7
4 4 4 4 4 5 6 6 4 2 2 3 3 3 3 3 6 5 2 2 4 4 5 6 6 6 7 7 5 1 2 2 4 4 1 2 3 3 3 4 5 7 7
4 4 4 4 5 5 7 7 6 2 2 3 3 3 6 6 7 6 3 3 4 5 4 4 5 6 5 6 7 3 3 3 3 4 2 2 2 2 3 3 3 3 4
Wind_Direction
38 27 20 21 17 16 22 19 23 28 30 28 31 34 25 20 17 16 1 11 16 16 15 13 12 15 15 8 1 358 352 14 76 35 20 21 31 54 98 133 143 140 137
56 45 31 24 17 13 22 32 32 32 29 33 32 27 24 19 19 20 15 10 14 15 15 14 13 10 11 8 3 6 11 34 51 48 34 30 38 64 98 125 136 138 142
54 55 46 28 10 10 31 40 35 35 38 37 30 22 26 22 25 22 17 14 7 14 17 18 17 15 12 11 7 8 12 21 33 40 37 31 42 75 98 124 127 132 137
53 54 48 26 9 25 35 44 34 39 36 36 32 22 23 23 24 24 26 22 16 13 11 18 20 18 15 12 10 8 8 13 26 34 36 40 51 67 87 106 116 126 133
50 57 48 23 20 39 36 41 40 43 39 29 37 34 26 28 22 29 28 25 21 17 13 14 19 17 16 12 7 7 9 13 24 31 32 38 48 60 75 98 105 125 137
47 55 51 31 30 44 36 38 48 43 42 22 41 40 29 27 31 30 23 21 20 20 16 17 14 8 13 10 5 5 10 15 23 27 26 32 46 52 62 86 114 125 125
45 52 48 38 36 46 39 36 48 47 30 10 46 23 11 23 35 27 19 23 20 13 15 18 15 11 4 6 4 9 17 21 25 25 25 28 42 52 59 77 102 110 130
38 52 53 46 40 47 40 34 43 53 29 23 62 62 16 1 3 13 15 25 15 10 16 18 16 15 5 358 359 13 17 22 28 26 26 25 32 42 46 60 122 121 133
41 46 52 53 47 52 47 36 42 68 59 25 41 99 103 20 326 340 5 17 11 13 7 5 18 13 7 6 0 11 22 23 23 23 22 27 30 32 32 36 80 121 132
40 42 47 55 56 53 48 36 49 58 82 52 28 41 87 140 107 342 339 356 10 16 8 6 7 7 7 5 7 14 19 20 21 21 25 27 27 25 25 32 52 74 82
31 38 46 55 58 55 53 49 50 52 61 79 65 52 56 53 67 108 334 335 349 352 358 356 359 3 5 4 2 13 19 22 24 24 25 26 24 21 20 33 37 37 30
18 31 50 56 59 58 55 53 55 59 57 66 64 65 86 86 67 96 94 322 327 321 336 352 4 359 1 2 7 14 18 21 23 25 26 26 25 23 20 27 31 31 23
5 3 41 52 52 55 64 64 61 54 54 62 58 50 57 79 154 141 133 308 336 322 333 341 350 355 1 1 0 9 15 19 21 24 26 25 24 26 21 19 25 22 21
217 310 63 69 62 63 70 71 64 55 58 61 58 55 46 20 38 136 153 141 9 345 351 330 324 349 351 348 355 4 9 17 19 24 25 24 26 27 25 22 19 15 11
184 126 95 83 69 70 80 83 67 52 58 55 56 56 48 11 25 28 116 152 146 19 325 319 326 330 342 346 358 2 3 12 16 19 20 22 25 25 24 19 16 17 13
141 127 109 97 83 75 81 84 73 57 64 42 41 49 35 8 20 26 43 77 146 161 239 297 300 309 330 349 360 359 1 8 10 11 15 18 20 21 22 16 10 8 6
157 150 141 121 106 89 80 85 77 70 67 37 24 40 18 5 24 14 29 50 70 140 204 293 299 314 334 341 341 345 353 358 354 6 10 14 14 16 18 18 12 7 2
162 156 142 129 124 113 104 112 101 76 84 45 5 22 359 10 17 5 22 25 10 185 181 288 315 325 326 325 329 339 350 357 351 359 6 9 10 12 13 15 14 7 1
157 149 144 145 148 144 134 141 139 121 123 195 277 6 323 13 358 339 359 7 347 5 139 243 298 309 311 321 332 334 340 338 343 353 359 5 5 5 8 10 7 359 354
164 164 167 167 167 163 163 166 149 134 127 316 297 273 280 255 266 282 316 310 330 25 351 307 301 309 305 308 332 336 335 338 334 339 346 350 356 358 357 357 356 353 350
177 171 165 172 177 179 187 177 170 164 163 213 327 308 281 282 297 273 271 232 173 63 337 328 311 317 317 326 322 312 318 318 317 324 330 333 336 334 335 338 343 344 341
174 166 178 184 199 216 207 199 180 170 178 189 262 300 299 310 326 335 327 308 234 215 231 250 279 284 286 281 286 297 309 332 319 319 333 312 321 311 309 309 319 328 332
179 184 196 193 211 233 222 212 206 181 192 210 227 258 285 292 307 320 325 331 319 303 265 220 236 257 267 264 273 289 280 269 270 283 308 295 298 291 290 300 312 319 322
185 194 204 208 215 237 230 221 216 187 202 227 231 230 239 268 269 266 269 309 300 296 283 262 233 248 253 254 239 248 262 278 277 277 244 274 285 278 287 289 297 306 311
195 201 203 205 212 240 238 228 215 182 217 247 250 240 234 245 264 267 249 268 287 290 285 277 268 270 277 282 276 275 285 294 296 292 249 243 275 286 285 278 285 298 305
202 202 213 213 216 234 243 235 224 191 218 247 261 261 258 257 264 260 237 236 263 270 278 293 294 297 293 291 286 253 230 246 266 280 254 233 271 299 300 280 279 290 299